Location: Wellington
(41.3000°S, 174.8000°E)
Time: 05:33:57
(UTC+12:00)

ISS - Visible Passes

Search period start: 15 August 2020 00:00
Search period end: 25 August 2020 00:00
Orbit: 418 x 420 km, 51.6° (Epoch: 15 August)

Date Brightness Start Highest point End Pass type
(mag) Time Alt. Az. Time Alt. Az. Time Alt. Az.
18 Aug -2.3 19:15:45 10° NNW 19:17:53 25° NNE 19:17:53 25° NNE visible
19 Aug -1.9 18:28:59 10° N 18:31:16 17° NE 18:32:49 13° E visible
19 Aug -1.3 20:04:22 10° WNW 20:05:48 23° WNW 20:05:48 23° WNW visible
20 Aug -3.8 19:16:42 10° NW 19:20:07 84° NE 19:20:37 62° ESE visible
21 Aug -3.3 18:29:14 10° NW 18:32:31 48° NE 18:35:18 14° ESE visible
21 Aug -1.3 20:06:27 10° W 20:08:17 23° WSW 20:08:17 23° WSW visible
22 Aug -2.6 19:18:27 10° W 19:21:42 39° SSW 19:22:52 29° SSE visible
23 Aug -3.3 18:30:35 10° WNW 18:33:58 60° SSW 18:37:22 10° SE visible
23 Aug -1.0 20:08:51 10° WSW 20:10:20 16° SW 20:10:20 16° SW visible
24 Aug -1.7 19:20:41 10° WSW 19:23:26 22° SSW 19:24:45 18° SSE visible
